Regional Weather Roundup
Issued by NWS

Home | Current Version | Previous Version | Text Only | Print | Product List | Glossary Off
Versions: 1 2 3 4 5 6 7 8 9 10 11 12 13 14 15 16 17 18 19 20 21 22 23 24 25 26 27 28 29 30 31 32 33 34 35 36 37 38 39 40 41 42 43 44 45 46 47 48 49 50

000
ASUS43 KBIS 230359
RWRND

NORTH DAKOTA REGIONAL WEATHER ROUNDUP
NATIONAL WEATHER SERVICE BISMARCK ND
1100 PM CDT TUE APR 22 2014

NOTE: "FAIR" INDICATES FEW OR NO CLOUDS BELOW 12,000 FEET WITH NO
SIGNIFICANT WEATHER AND/OR OBSTRUCTIONS TO VISIBILITY.


NDZ001>003-009>011-017-230500-
NORTHWEST NORTH DAKOTA

CITY           SKY/WX    TMP DP  RH WIND       PRES   REMARKS
WILLISTON      MOCLDY    59  31  34 E17G28    29.65S
MINOT          PTCLDY    51  33  50 E16       29.79S
$$

NDZ018>021-031>035-040>046-230500-
SOUTHWEST NORTH DAKOTA

CITY           SKY/WX    TMP DP  RH WIND       PRES   REMARKS
BISMARCK       MOCLDY    57  33  40 E23G30    29.74F
GARRISON         N/A     52  34  50 E18G26    29.76S
HETTINGER ARPT CLOUDY    53  31  42 E18G29    29.60F
$$

NDZ004>008-012>016-024-026-027-054-230500-
NORTHEAST NORTH DAKOTA

CITY           SKY/WX    TMP DP  RH WIND       PRES   REMARKS
GRAND FORKS    PTCLDY    50  30  46 E16       29.98S
DEVILS LAKE    MOCLDY    48  32  53 SE14      29.92S
$$

NDZ022-023-025-028>030-036>039-047>053-230500-
SOUTHEAST NORTH DAKOTA

CITY           SKY/WX    TMP DP  RH WIND       PRES   REMARKS
FARGO          PTCLDY    51  32  48 E12       29.97S
$$




USA.gov is the U.S. government's official web portal to all federal, state and local government web resources and services.